Location: Carnoy
(49.9849°N, 2.7558°E)
Time: 21:31:30
(UTC+00:00)

Cosmos 2227 Rocket - Pass Details

Date: 24 January 2020
Orbit: 841 x 843 km, 71.0° (Epoch: 18 February)

Event Time Altitude Azimuth Distance (km) Brightness Sun altitude
Rises 17:50:57 0° 199° (SSW) 3,385 5.8 -13.0°
Reaches altitude 10° 17:53:24 10° 197° (SSW) 2,454 5.0 -13.4°
Maximum altitude 17:58:59 71° 115° (ESE) 891 2.1 -14.3°
Enters shadow 18:04:25 11° 33° (NNE) 2,388 4.1 -15.1°
